Time,TemperatureF,DewpointF,PressureIn,WindDirection,WindDirectionDegrees,WindSpeedMPH,WindSpeedGustMPH,Humidity,HourlyPrecipIn,Conditions,Clouds,dailyrainin,SolarRadiationWatts/m^2,SoftwareType,DateUTC
2013-05-20 00:01:00,55.0,54.0,-100.00,NNE,27,0.0,2.0,96,0.00,,,0.07,0.000000,,2013-05-20 04:01:00,
2013-05-20 00:33:00,55.0,54.0,-100.00,NNE,27,0.0,2.0,96,0.00,,,0.07,0.000000,,2013-05-20 04:33:00,
2013-05-20 00:43:00,55.0,54.0,-100.00,NNE,27,0.0,2.0,96,0.00,,,0.07,0.000000,,2013-05-20 04:43:00,
2013-05-20 00:53:00,55.0,54.0,-100.00,NNE,27,0.0,2.0,96,0.00,,,0.07,0.000000,,2013-05-20 04:53:00,
2013-05-20 01:01:00,54.0,53.0,-100.00,ESE,122,0.0,1.0,97,0.00,,,0.07,0.000000,,2013-05-20 05:01:00,
2013-05-20 01:32:00,54.0,53.0,-100.00,ESE,122,0.0,1.0,97,0.00,,,0.07,0.000000,,2013-05-20 05:32:00,
2013-05-20 01:42:00,54.0,53.0,-100.00,ESE,122,0.0,1.0,97,0.00,,,0.07,0.000000,,2013-05-20 05:42:00,
2013-05-20 01:52:00,54.0,53.0,-100.00,ESE,122,0.0,1.0,97,0.00,,,0.07,0.000000,,2013-05-20 05:52:00,
2013-05-20 02:01:00,55.0,54.0,-100.00,NNE,29,0.0,3.0,97,0.00,,,0.07,0.000000,,2013-05-20 06:01:00,
2013-05-20 02:32:00,55.0,54.0,-100.00,NNE,29,0.0,3.0,97,0.00,,,0.07,0.000000,,2013-05-20 06:32:00,
2013-05-20 02:42:00,55.0,54.0,-100.00,NNE,29,0.0,3.0,97,0.00,,,0.07,0.000000,,2013-05-20 06:42:00,
2013-05-20 02:52:00,55.0,54.0,-100.00,NNE,29,0.0,3.0,97,0.00,,,0.07,0.000000,,2013-05-20 06:52:00,
2013-05-20 03:01:00,58.0,57.0,-100.00,SSW,193,1.0,6.0,98,0.00,,,0.07,0.000000,,2013-05-20 07:01:00,
2013-05-20 03:32:00,58.0,57.0,-100.00,SSW,193,1.0,6.0,98,0.00,,,0.07,0.000000,,2013-05-20 07:32:00,
2013-05-20 03:42:00,58.0,57.0,-100.00,SSW,193,1.0,6.0,98,0.00,,,0.07,0.000000,,2013-05-20 07:42:00,
2013-05-20 03:52:00,58.0,57.0,-100.00,SSW,193,1.0,6.0,98,0.00,,,0.07,0.000000,,2013-05-20 07:52:00,
2013-05-20 04:01:00,59.0,56.0,-100.00,ENE,61,0.0,8.0,90,0.00,,,0.07,0.000000,,2013-05-20 08:01:00,
2013-05-20 04:32:00,59.0,56.0,-100.00,ENE,61,0.0,8.0,90,0.00,,,0.07,0.000000,,2013-05-20 08:32:00,
2013-05-20 04:42:00,59.0,56.0,-100.00,ENE,61,0.0,8.0,90,0.00,,,0.07,0.000000,,2013-05-20 08:42:00,
2013-05-20 04:52:00,59.0,56.0,-100.00,ENE,61,0.0,8.0,90,0.00,,,0.07,0.000000,,2013-05-20 08:52:00,
2013-05-20 05:01:00,60.0,57.0,-100.00,ENE,62,0.0,5.0,89,0.00,,,0.07,0.000000,,2013-05-20 09:01:00,
2013-05-20 05:33:00,60.0,57.0,-100.00,ENE,62,0.0,5.0,89,0.00,,,0.07,0.000000,,2013-05-20 09:33:00,
2013-05-20 05:43:00,60.0,57.0,-100.00,ENE,62,0.0,5.0,89,0.00,,,0.07,0.000000,,2013-05-20 09:43:00,
2013-05-20 05:53:00,60.0,57.0,-100.00,ENE,62,0.0,5.0,89,0.00,,,0.07,0.000000,,2013-05-20 09:53:00,
2013-05-20 06:01:00,59.0,57.0,-100.00,North,353,0.0,10.0,94,0.02,,,0.09,3.000000,,2013-05-20 10:01:00,
2013-05-20 06:22:00,59.0,57.0,-100.00,North,353,0.0,10.0,94,0.02,,,0.09,3.000000,,2013-05-20 10:22:00,
2013-05-20 06:33:00,59.0,57.0,-100.00,North,353,0.0,10.0,94,0.02,,,0.09,3.000000,,2013-05-20 10:33:00,
2013-05-20 06:42:00,59.0,57.0,-100.00,North,353,0.0,10.0,94,0.02,,,0.09,3.000000,,2013-05-20 10:42:00,
2013-05-20 06:52:00,59.0,57.0,-100.00,North,353,0.0,10.0,94,0.02,,,0.09,3.000000,,2013-05-20 10:52:00,
2013-05-20 07:01:00,58.0,57.0,-100.00,NNE,18,0.0,3.0,97,0.00,,,0.09,16.000000,,2013-05-20 11:01:00,
2013-05-20 07:32:00,58.0,57.0,-100.00,NNE,18,0.0,3.0,97,0.00,,,0.09,16.000000,,2013-05-20 11:32:00,
2013-05-20 07:42:00,58.0,57.0,-100.00,NNE,18,0.0,3.0,97,0.00,,,0.09,16.000000,,2013-05-20 11:42:00,
2013-05-20 07:52:00,58.0,57.0,-100.00,NNE,18,0.0,3.0,97,0.00,,,0.09,16.000000,,2013-05-20 11:52:00,
2013-05-20 08:01:00,59.0,58.0,-100.00,SSW,196,1.0,5.0,97,0.00,,,0.09,28.000000,,2013-05-20 12:01:00,
2013-05-20 08:32:00,59.0,58.0,-100.00,SSW,196,1.0,5.0,97,0.00,,,0.09,28.000000,,2013-05-20 12:32:00,
2013-05-20 08:42:00,59.0,58.0,-100.00,SSW,196,1.0,5.0,97,0.00,,,0.09,28.000000,,2013-05-20 12:42:00,
2013-05-20 08:52:00,59.0,58.0,-100.00,SSW,196,1.0,5.0,97,0.00,,,0.09,28.000000,,2013-05-20 12:52:00,
2013-05-20 10:01:00,63.0,58.0,-100.00,South,187,1.0,7.0,85,-99.99,,,0.09,134.000000,,2013-05-20 14:01:00,
2013-05-20 10:32:00,63.0,58.0,-100.00,South,187,1.0,7.0,85,-99.99,,,0.09,134.000000,,2013-05-20 14:32:00,
2013-05-20 10:42:00,63.0,58.0,-100.00,South,187,1.0,7.0,85,-99.99,,,0.09,134.000000,,2013-05-20 14:42:00,
2013-05-20 10:52:00,63.0,58.0,-100.00,South,187,1.0,7.0,85,-99.99,,,0.09,134.000000,,2013-05-20 14:52:00,
2013-05-20 11:01:00,66.0,60.0,-100.00,SW,224,1.0,7.0,82,0.00,,,0.09,209.000000,,2013-05-20 15:01:00,
2013-05-20 11:33:00,66.0,60.0,-100.00,SW,224,1.0,7.0,82,0.00,,,0.09,209.000000,,2013-05-20 15:33:00,
2013-05-20 11:42:00,66.0,60.0,-100.00,SW,224,1.0,7.0,82,0.00,,,0.09,209.000000,,2013-05-20 15:42:00,
2013-05-20 11:53:00,66.0,60.0,-100.00,SW,224,1.0,7.0,82,0.00,,,0.09,209.000000,,2013-05-20 15:53:00,
2013-05-20 12:33:00,68.0,60.0,-100.00,South,174,1.0,8.0,75,0.00,,,0.09,323.000000,,2013-05-20 16:33:00,
2013-05-20 12:42:00,68.0,60.0,-100.00,South,174,1.0,8.0,75,0.00,,,0.09,323.000000,,2013-05-20 16:42:00,
2013-05-20 12:53:00,68.0,60.0,-100.00,South,174,1.0,8.0,75,0.00,,,0.09,323.000000,,2013-05-20 16:53:00,
2013-05-20 13:01:00,69.0,62.0,-100.00,NNW,338,0.0,3.0,78,0.00,,,0.09,256.000000,,2013-05-20 17:01:00,
2013-05-20 13:33:00,69.0,62.0,-100.00,NNW,338,0.0,3.0,78,0.00,,,0.09,256.000000,,2013-05-20 17:33:00,
2013-05-20 13:45:00,69.0,62.0,-100.00,NNW,338,0.0,3.0,78,0.00,,,0.09,256.000000,,2013-05-20 17:45:00,
2013-05-20 13:53:00,69.0,62.0,-100.00,NNW,338,0.0,3.0,78,0.00,,,0.09,256.000000,,2013-05-20 17:53:00,
2013-05-20 14:01:00,70.0,61.0,-100.00,NNE,29,0.0,4.0,73,0.00,,,0.09,264.000000,,2013-05-20 18:01:00,
2013-05-20 14:33:00,70.0,61.0,-100.00,NNE,29,0.0,4.0,73,0.00,,,0.09,264.000000,,2013-05-20 18:33:00,
2013-05-20 14:42:00,70.0,61.0,-100.00,NNE,29,0.0,4.0,73,0.00,,,0.09,264.000000,,2013-05-20 18:42:00,
2013-05-20 14:55:00,70.0,61.0,-100.00,NNE,29,0.0,4.0,73,0.00,,,0.09,264.000000,,2013-05-20 18:55:00,
2013-05-20 15:01:00,72.0,61.0,-100.00,SW,214,1.0,5.0,68,0.00,,,0.09,389.000000,,2013-05-20 19:01:00,
2013-05-20 15:33:00,72.0,61.0,-100.00,SW,214,1.0,5.0,68,0.00,,,0.09,389.000000,,2013-05-20 19:33:00,
2013-05-20 15:42:00,72.0,61.0,-100.00,SW,214,1.0,5.0,68,0.00,,,0.09,389.000000,,2013-05-20 19:42:00,
2013-05-20 15:53:00,72.0,61.0,-100.00,SW,214,1.0,5.0,68,0.00,,,0.09,389.000000,,2013-05-20 19:53:00,
2013-05-20 16:01:00,75.0,61.0,-100.00,SSW,198,2.0,6.0,61,0.00,,,0.09,672.000000,,2013-05-20 20:01:00,
2013-05-20 16:32:00,75.0,61.0,-100.00,SSW,198,2.0,6.0,61,0.00,,,0.09,672.000000,,2013-05-20 20:32:00,
2013-05-20 16:42:00,75.0,61.0,-100.00,SSW,198,2.0,6.0,61,0.00,,,0.09,672.000000,,2013-05-20 20:42:00,
2013-05-20 16:52:00,75.0,61.0,-100.00,SSW,198,2.0,6.0,61,0.00,,,0.09,672.000000,,2013-05-20 20:52:00,
2013-05-20 17:01:00,72.0,61.0,-100.00,North,352,0.0,5.0,68,0.00,,,0.05,236.000000,,2013-05-20 21:01:00,
2013-05-20 17:33:00,72.0,61.0,-100.00,North,352,0.0,5.0,68,0.00,,,0.05,236.000000,,2013-05-20 21:33:00,
2013-05-20 17:43:00,72.0,61.0,-100.00,North,352,0.0,5.0,68,0.00,,,0.05,236.000000,,2013-05-20 21:43:00,
2013-05-20 17:53:00,72.0,61.0,-100.00,North,352,0.0,5.0,68,0.00,,,0.05,236.000000,,2013-05-20 21:53:00,
2013-05-20 18:01:00,73.0,61.0,-100.00,WSW,243,0.0,4.0,65,0.00,,,0.03,244.000000,,2013-05-20 22:01:00,
2013-05-20 18:33:00,73.0,61.0,-100.00,WSW,243,0.0,4.0,65,0.00,,,0.03,244.000000,,2013-05-20 22:33:00,
2013-05-20 18:42:00,73.0,61.0,-100.00,WSW,243,0.0,4.0,65,0.00,,,0.03,244.000000,,2013-05-20 22:42:00,
2013-05-20 18:53:00,73.0,61.0,-100.00,WSW,243,0.0,4.0,65,0.00,,,0.03,244.000000,,2013-05-20 22:53:00,
2013-05-20 19:01:00,70.0,61.0,-100.00,North,7,0.0,2.0,73,0.00,,,0.03,154.000000,,2013-05-20 23:01:00,
2013-05-20 19:22:00,70.0,61.0,-100.00,North,7,0.0,2.0,73,0.00,,,0.03,154.000000,,2013-05-20 23:22:00,
2013-05-20 19:32:00,70.0,61.0,-100.00,North,7,0.0,2.0,73,0.00,,,0.03,154.000000,,2013-05-20 23:32:00,
2013-05-20 19:42:00,70.0,61.0,-100.00,North,7,0.0,2.0,73,0.00,,,0.03,154.000000,,2013-05-20 23:42:00,
2013-05-20 19:53:00,70.0,61.0,-100.00,North,7,0.0,2.0,73,0.00,,,0.03,154.000000,,2013-05-20 23:53:00,
2013-05-20 20:01:00,65.0,61.0,-100.00,NNE,16,0.0,2.0,86,0.00,,,0.03,45.000000,,2013-05-21 00:01:00,
2013-05-20 20:22:00,65.0,61.0,-100.00,NNE,16,0.0,2.0,86,0.00,,,0.03,45.000000,,2013-05-21 00:22:00,
2013-05-20 20:32:00,65.0,61.0,-100.00,NNE,16,0.0,2.0,86,0.00,,,0.03,45.000000,,2013-05-21 00:32:00,
2013-05-20 20:42:00,65.0,61.0,-100.00,NNE,16,0.0,2.0,86,0.00,,,0.03,45.000000,,2013-05-21 00:42:00,
2013-05-20 20:52:00,65.0,61.0,-100.00,NNE,16,0.0,2.0,86,0.00,,,0.03,45.000000,,2013-05-21 00:52:00,
2013-05-20 21:01:00,62.0,60.0,-100.00,East,97,0.0,1.0,93,0.00,,,0.03,4.000000,,2013-05-21 01:01:00,
2013-05-20 21:22:00,62.0,60.0,-100.00,East,97,0.0,1.0,93,0.00,,,0.03,4.000000,,2013-05-21 01:22:00,
2013-05-20 21:32:00,62.0,60.0,-100.00,East,97,0.0,1.0,93,0.00,,,0.03,4.000000,,2013-05-21 01:32:00,
2013-05-20 21:42:00,62.0,60.0,-100.00,East,97,0.0,1.0,93,0.00,,,0.03,4.000000,,2013-05-21 01:42:00,
2013-05-20 21:53:00,62.0,60.0,-100.00,East,97,0.0,1.0,93,0.00,,,0.03,4.000000,,2013-05-21 01:53:00,
2013-05-20 22:01:00,59.0,58.0,-100.00,NNE,29,0.0,0.0,96,0.00,,,0.02,0.000000,,2013-05-21 02:01:00,
2013-05-20 22:32:00,59.0,58.0,-100.00,NNE,29,0.0,0.0,96,0.00,,,0.02,0.000000,,2013-05-21 02:32:00,
2013-05-20 22:42:00,59.0,58.0,-100.00,NNE,29,0.0,0.0,96,0.00,,,0.02,0.000000,,2013-05-21 02:42:00,
2013-05-20 22:52:00,59.0,58.0,-100.00,NNE,29,0.0,0.0,96,0.00,,,0.02,0.000000,,2013-05-21 02:52:00,
2013-05-20 23:01:00,58.0,57.0,-100.00,NNE,30,0.0,0.0,97,0.00,,,0.02,0.000000,,2013-05-21 03:01:00,
2013-05-20 23:21:00,58.0,57.0,-100.00,NNE,30,0.0,0.0,97,0.00,,,0.02,0.000000,,2013-05-21 03:21:00,
2013-05-20 23:33:00,58.0,57.0,-100.00,NNE,30,0.0,0.0,97,0.00,,,0.02,0.000000,,2013-05-21 03:33:00,
2013-05-20 23:43:00,58.0,57.0,-100.00,NNE,30,0.0,0.0,97,0.00,,,0.02,0.000000,,2013-05-21 03:43:00,
2013-05-20 23:53:00,58.0,57.0,-100.00,NNE,30,0.0,0.0,97,0.00,,,0.02,0.000000,,2013-05-21 03:53:00,